Home   Weather   Salinas   Past weeks

Flag for USA Past Weather in Salinas, California, USA — Yesterday and Last 2 Weeks

Now
48 °F

Mostly cloudy.


Feels Like: 44 °F
Forecast: 42 / 55 °F
Wind: 8 mph from West

Location: Salinas Municipal Airport

Current Time: Dec 6, 2016 at 8:08:32 am

Latest Report: Dec 6, 2016 at 6:53 am


Visibility: 10 mi

Pressure: 30.09 "Hg

Humidity: 77%

Dew Point: 41 °F

Location of SalinasLocation

Past Weather in Salinas — Graph

°F

Salinas Temperature Yesterday

Maximum temperature yesterday: 58 °F (at 12:53 pm)
Minimum temperature yesterday: 44 °F (at 6:53 am)
Average temperature yesterday: 51 °F

High & Low Weather Summary for the Past Weeks

 TemperatureHumidityPressure
High66 °F (Nov 24, 2:53 pm)100% (Dec 5, 3:53 am)30.38 "Hg (Dec 5, 3:53 am)
Low37 °F (Nov 25, 4:53 am)26% (Dec 2, 11:53 am)29.89 "Hg (Nov 26, 4:53 am)
Average50 °F75%30.14 "Hg
* Reported Nov 21 6:53 am — Dec 6 6:53 am, Salinas, Weather by CustomWeather, © 2016

Note: Actual official high and low records may vary slightly from our data, if they occured in-between our weather recording intervals... More about our weather records

Advertising

Salinas Weather History for the Previous 24 Hours

Scroll right to see more
 ConditionsComfort  
Time TempWeatherWind HumidityBarometerVisibility
6:53 am
Tue, Dec 6
48 °FMostly cloudy.8 mph77%30.09 "Hg10 mi
5:53 am48 °FOvercast.6 mph83%30.08 "Hg10 mi
4:53 am48 °FOvercast.6 mph80%30.06 "Hg10 mi
3:53 am48 °FOvercast.3 mph83%30.06 "Hg10 mi
2:53 am48 °FPassing clouds.No wind86%30.07 "Hg10 mi
1:53 am50 °FPassing clouds.7 mph83%30.07 "Hg10 mi
12:53 am50 °FOvercast.6 mph86%30.06 "Hg10 mi
11:53 pm
Mon, Dec 5
47 °FPassing clouds.5 mph90%30.09 "Hg9 mi
10:53 pm47 °FClear.3 mph90%30.07 "Hg10 mi
9:53 pm48 °FClear.No wind86%30.05 "Hg8 mi
8:53 pm50 °FClear.3 mph86%30.05 "Hg8 mi
7:53 pm50 °FClear.3 mph86%30.05 "Hg10 mi
6:53 pm51 °FClear.7 mph83%30.05 "Hg10 mi
5:53 pm53 °FClear.5 mph80%30.05 "Hg10 mi
4:53 pm53 °FPassing clouds.7 mph80%30.05 "Hg10 mi
3:53 pm55 °FSunny.9 mph74%30.06 "Hg10 mi
2:53 pm58 °FSunny.12 mph67%30.06 "Hg10 mi
1:53 pm58 °FSunny.9 mph70%30.06 "Hg10 mi
12:53 pm58 °FPartly sunny.9 mph70%30.07 "Hg10 mi
11:53 am57 °FSunny.7 mph72%30.09 "Hg10 mi
10:53 am55 °FSunny.No wind83%30.11 "Hg9 mi
9:53 am48 °FFog.3 mph100%30.14 "Hg1 mi
Weather by CustomWeather, © 2016

See weather overviewHow to use our weather pages